Time,TemperatureF,DewpointF,PressureIn,WindDirection,WindDirectionDegrees,WindSpeedMPH,WindSpeedGustMPH,Humidity,HourlyPrecipIn,Conditions,Clouds,dailyrainin,SoftwareType,DateUTC
2013-05-14 00:00:00,58.6,51.4,30.13,NW,315,0.0,0.0,77,0.00,,---,0.00,VWS V14.01,2013-05-14 04:00:00,
2013-05-14 00:01:00,58.7,51.9,30.13,NW,315,0.0,0.0,78,0.00,,---,0.00,VWS V14.01,2013-05-14 04:01:00,
2013-05-14 00:02:00,58.6,51.8,30.13,NW,316,0.0,0.0,78,0.00,,---,0.00,VWS V14.01,2013-05-14 04:02:00,
2013-05-14 00:05:00,58.5,51.3,30.13,NW,316,0.0,0.0,77,0.00,,---,0.00,VWS V14.01,2013-05-14 04:05:00,
2013-05-14 00:07:00,58.5,51.3,30.13,NW,316,0.0,0.0,77,0.00,,---,0.00,VWS V14.01,2013-05-14 04:07:00,
2013-05-14 00:10:00,58.5,52.0,30.13,NW,316,0.0,0.0,79,0.00,,---,0.00,VWS V14.01,2013-05-14 04:10:00,
2013-05-14 00:12:00,58.5,52.0,30.13,NW,316,0.0,0.0,79,0.00,,---,0.00,VWS V14.01,2013-05-14 04:12:00,
2013-05-14 00:15:00,58.5,52.0,30.13,NW,316,0.0,0.0,79,0.00,,---,0.00,VWS V14.01,2013-05-14 04:15:00,
2013-05-14 00:17:00,58.5,52.0,30.13,NW,316,0.0,0.0,79,0.00,,---,0.00,VWS V14.01,2013-05-14 04:17:00,
2013-05-14 00:20:00,58.4,51.9,30.13,NW,316,0.0,0.0,79,0.00,,---,0.00,VWS V14.01,2013-05-14 04:20:00,
2013-05-14 00:22:00,58.4,51.9,30.13,NW,315,0.0,0.0,79,0.00,,---,0.00,VWS V14.01,2013-05-14 04:22:00,
2013-05-14 00:25:00,58.5,52.4,30.13,NW,316,0.0,0.0,80,0.00,,---,0.00,VWS V14.01,2013-05-14 04:25:00,
2013-05-14 00:27:00,58.5,52.4,30.13,NW,316,0.0,0.0,80,0.00,,---,0.00,VWS V14.01,2013-05-14 04:27:00,
2013-05-14 00:30:00,58.3,51.8,30.14,NW,315,0.0,0.0,79,0.00,,---,0.00,VWS V14.01,2013-05-14 04:30:00,
2013-05-14 00:32:00,58.3,51.8,30.14,NW,316,0.0,0.0,79,0.00,,---,0.00,VWS V14.01,2013-05-14 04:32:00,
2013-05-14 00:35:00,58.2,51.7,30.13,NW,315,0.0,0.0,79,0.00,,---,0.00,VWS V14.01,2013-05-14 04:35:00,
2013-05-14 00:37:00,58.2,51.7,30.13,NW,316,0.0,0.0,79,0.00,,---,0.00,VWS V14.01,2013-05-14 04:37:00,
2013-05-14 00:40:00,57.9,51.4,30.14,NW,316,0.0,0.0,79,0.00,,---,0.00,VWS V14.01,2013-05-14 04:40:00,
2013-05-14 00:42:00,57.9,51.4,30.14,NW,315,0.0,0.0,79,0.00,,---,0.00,VWS V14.01,2013-05-14 04:42:00,
2013-05-14 00:45:00,57.8,51.7,30.13,NW,316,0.0,0.0,80,0.00,,---,0.00,VWS V14.01,2013-05-14 04:45:00,
2013-05-14 00:47:00,57.8,51.7,30.13,NW,316,0.0,0.0,80,0.00,,---,0.00,VWS V14.01,2013-05-14 04:47:00,
2013-05-14 00:50:00,57.5,51.7,30.13,NW,316,0.0,0.0,81,0.00,,---,0.00,VWS V14.01,2013-05-14 04:50:00,
2013-05-14 00:52:00,57.5,51.7,30.13,NW,316,0.0,0.0,81,0.00,,---,0.00,VWS V14.01,2013-05-14 04:52:00,
2013-05-14 00:55:00,57.2,51.1,30.14,NW,316,0.0,0.0,80,0.00,,---,0.00,VWS V14.01,2013-05-14 04:55:00,
2013-05-14 00:57:00,57.2,51.1,30.14,NW,315,0.0,0.0,80,0.00,,---,0.00,VWS V14.01,2013-05-14 04:57:00,
2013-05-14 01:00:00,57.0,51.6,30.14,NW,316,0.0,0.0,82,0.00,,---,0.00,VWS V14.01,2013-05-14 05:00:00,
2013-05-14 01:02:00,57.0,51.6,30.14,NW,315,0.0,0.0,82,0.00,,---,0.00,VWS V14.01,2013-05-14 05:02:00,
2013-05-14 01:05:00,56.8,51.4,30.14,NW,315,0.0,0.0,82,0.00,,---,0.00,VWS V14.01,2013-05-14 05:05:00,
2013-05-14 01:07:00,56.8,51.4,30.14,NW,315,0.0,0.0,82,0.00,,---,0.00,VWS V14.01,2013-05-14 05:07:00,
2013-05-14 01:10:00,56.8,51.7,30.14,NW,315,0.0,0.0,83,0.00,,---,0.00,VWS V14.01,2013-05-14 05:10:00,
2013-05-14 01:12:00,56.8,51.7,30.14,NW,315,0.0,0.0,83,0.00,,---,0.00,VWS V14.01,2013-05-14 05:12:00,
2013-05-14 01:15:00,56.7,51.6,30.13,NW,316,0.0,0.0,83,0.00,,---,0.00,VWS V14.01,2013-05-14 05:15:00,
2013-05-14 01:17:00,56.8,51.7,30.13,NW,316,0.0,0.0,83,0.00,,---,0.00,VWS V14.01,2013-05-14 05:17:00,
2013-05-14 01:20:00,56.6,51.5,30.13,NW,316,0.0,0.0,83,0.00,,---,0.00,VWS V14.01,2013-05-14 05:20:00,
2013-05-14 01:22:00,56.6,51.5,30.13,NW,316,0.0,0.0,83,0.00,,---,0.00,VWS V14.01,2013-05-14 05:22:00,
2013-05-14 01:25:00,56.4,50.7,30.13,NW,316,0.0,0.0,81,0.00,,---,0.00,VWS V14.01,2013-05-14 05:25:00,
2013-05-14 01:27:00,56.4,50.7,30.13,NW,316,0.0,0.0,81,0.00,,---,0.00,VWS V14.01,2013-05-14 05:27:00,
2013-05-14 01:30:00,56.4,51.0,30.13,NW,316,0.0,0.0,82,0.00,,---,0.00,VWS V14.01,2013-05-14 05:30:00,
2013-05-14 01:32:00,56.5,51.1,30.13,NW,315,0.0,0.0,82,0.00,,---,0.00,VWS V14.01,2013-05-14 05:32:00,
2013-05-14 01:35:00,56.4,51.0,30.13,NW,316,0.0,0.0,82,0.00,,---,0.00,VWS V14.01,2013-05-14 05:35:00,
2013-05-14 01:37:00,56.4,51.0,30.13,NW,315,0.0,0.0,82,0.00,,---,0.00,VWS V14.01,2013-05-14 05:37:00,
2013-05-14 01:40:00,56.2,50.8,30.13,NW,315,0.0,0.0,82,0.00,,---,0.00,VWS V14.01,2013-05-14 05:40:00,
2013-05-14 01:42:00,56.2,50.8,30.13,NW,315,0.0,0.0,82,0.00,,---,0.00,VWS V14.01,2013-05-14 05:42:00,
2013-05-14 01:45:00,56.1,50.7,30.13,NW,316,0.0,0.0,82,0.00,,---,0.00,VWS V14.01,2013-05-14 05:45:00,
2013-05-14 01:47:00,56.1,50.7,30.13,NW,315,0.0,0.0,82,0.00,,---,0.00,VWS V14.01,2013-05-14 05:47:00,
2013-05-14 01:50:00,55.8,50.4,30.12,NW,315,0.0,0.0,82,0.00,,---,0.00,VWS V14.01,2013-05-14 05:50:00,
2013-05-14 01:52:00,55.8,50.4,30.12,NW,316,0.0,0.0,82,0.00,,---,0.00,VWS V14.01,2013-05-14 05:52:00,
2013-05-14 01:55:00,55.7,50.6,30.13,NW,316,0.0,0.0,83,0.00,,---,0.00,VWS V14.01,2013-05-14 05:55:00,
2013-05-14 01:57:00,55.7,50.6,30.13,NW,315,0.0,0.0,83,0.00,,---,0.00,VWS V14.01,2013-05-14 05:57:00,
2013-05-14 02:00:00,55.8,51.0,30.12,NW,316,0.0,0.0,84,0.00,,---,0.00,VWS V14.01,2013-05-14 06:00:00,
2013-05-14 02:02:00,55.8,51.0,30.12,NW,316,0.0,0.0,84,0.00,,---,0.00,VWS V14.01,2013-05-14 06:02:00,
2013-05-14 02:05:00,55.8,51.0,30.12,NW,316,0.0,0.0,84,0.00,,---,0.00,VWS V14.01,2013-05-14 06:05:00,
2013-05-14 02:07:00,55.8,51.0,30.12,NW,316,0.0,0.0,84,0.00,,---,0.00,VWS V14.01,2013-05-14 06:07:00,
2013-05-14 02:10:00,55.7,51.0,30.12,NW,316,0.0,0.0,84,0.00,,---,0.00,VWS V14.01,2013-05-14 06:10:00,
2013-05-14 02:12:00,55.7,51.0,30.12,NW,315,0.0,0.0,84,0.00,,---,0.00,VWS V14.01,2013-05-14 06:12:00,
2013-05-14 02:15:00,55.6,50.5,30.12,NW,316,0.0,0.0,83,0.00,,---,0.00,VWS V14.01,2013-05-14 06:15:00,
2013-05-14 02:17:00,55.6,50.5,30.12,NW,316,0.0,0.0,83,0.00,,---,0.00,VWS V14.01,2013-05-14 06:17:00,
2013-05-14 02:20:00,55.5,50.8,30.12,NW,316,0.0,0.0,84,0.00,,---,0.00,VWS V14.01,2013-05-14 06:20:00,
2013-05-14 02:22:00,55.5,50.8,30.12,NW,316,0.0,0.0,84,0.00,,---,0.00,VWS V14.01,2013-05-14 06:22:00,
2013-05-14 02:25:00,55.5,50.8,30.12,NW,316,0.0,0.0,84,0.00,,---,0.00,VWS V14.01,2013-05-14 06:25:00,
2013-05-14 02:27:00,55.5,50.8,30.12,NW,316,0.0,0.0,84,0.00,,---,0.00,VWS V14.01,2013-05-14 06:27:00,
2013-05-14 02:30:00,55.4,50.7,30.12,NW,316,0.0,0.0,84,0.00,,---,0.00,VWS V14.01,2013-05-14 06:30:00,
2013-05-14 02:32:00,55.4,50.7,30.12,NW,316,0.0,0.0,84,0.00,,---,0.00,VWS V14.01,2013-05-14 06:32:00,
2013-05-14 02:35:00,55.5,51.4,30.12,NW,316,0.0,0.0,86,0.00,,---,0.00,VWS V14.01,2013-05-14 06:35:00,
2013-05-14 02:37:00,55.5,51.4,30.12,NW,316,0.0,0.0,86,0.00,,---,0.00,VWS V14.01,2013-05-14 06:37:00,
2013-05-14 02:40:00,55.7,51.9,30.12,NW,315,0.0,0.0,87,0.00,,---,0.00,VWS V14.01,2013-05-14 06:40:00,
2013-05-14 02:42:00,55.7,51.9,30.12,NW,316,0.0,0.0,87,0.00,,---,0.00,VWS V14.01,2013-05-14 06:42:00,
2013-05-14 02:45:00,55.6,51.5,30.12,NW,316,0.0,0.0,86,0.00,,---,0.00,VWS V14.01,2013-05-14 06:45:00,
2013-05-14 02:47:00,55.6,51.5,30.12,NW,315,0.0,0.0,86,0.00,,---,0.00,VWS V14.01,2013-05-14 06:47:00,
2013-05-14 02:50:00,55.8,52.3,30.13,NW,315,0.0,0.0,88,0.00,,---,0.00,VWS V14.01,2013-05-14 06:50:00,
2013-05-14 02:52:00,55.8,52.3,30.13,NW,315,0.0,0.0,88,0.00,,---,0.00,VWS V14.01,2013-05-14 06:52:00,
2013-05-14 02:55:00,56.6,53.4,30.12,NW,315,0.0,0.0,89,0.00,,---,0.00,VWS V14.01,2013-05-14 06:55:00,
2013-05-14 02:57:00,56.6,53.4,30.12,NW,315,0.0,0.0,89,0.00,,---,0.00,VWS V14.01,2013-05-14 06:57:00,
2013-05-14 03:00:00,57.2,53.7,30.12,NW,315,0.0,0.0,88,0.00,,---,0.00,VWS V14.01,2013-05-14 07:00:00,
2013-05-14 03:02:00,57.2,53.7,30.12,NW,315,0.0,0.0,88,0.00,,---,0.00,VWS V14.01,2013-05-14 07:02:00,
2013-05-14 03:05:00,57.4,53.9,30.12,NW,315,0.0,0.0,88,0.00,,---,0.00,VWS V14.01,2013-05-14 07:05:00,
2013-05-14 03:07:00,57.4,53.9,30.12,NW,315,0.0,0.0,88,0.00,,---,0.00,VWS V14.01,2013-05-14 07:07:00,
2013-05-14 03:10:00,57.4,53.6,30.12,NW,315,0.0,0.0,87,0.00,,---,0.00,VWS V14.01,2013-05-14 07:10:00,
2013-05-14 03:12:00,57.4,53.6,30.12,NW,315,0.0,0.0,87,0.00,,---,0.00,VWS V14.01,2013-05-14 07:12:00,
2013-05-14 03:15:00,56.9,52.4,30.13,NW,315,0.0,0.0,85,0.00,,---,0.00,VWS V14.01,2013-05-14 07:15:00,
2013-05-14 03:17:00,56.9,52.4,30.13,NW,315,0.0,0.0,85,0.00,,---,0.00,VWS V14.01,2013-05-14 07:17:00,
2013-05-14 03:20:00,56.3,51.9,30.13,NW,315,0.0,0.0,85,0.00,,---,0.00,VWS V14.01,2013-05-14 07:20:00,
2013-05-14 03:22:00,56.3,51.9,30.13,NW,315,0.0,0.0,85,0.00,,---,0.00,VWS V14.01,2013-05-14 07:22:00,
2013-05-14 03:25:00,56.1,52.3,30.12,NW,315,0.0,0.0,87,0.00,,---,0.00,VWS V14.01,2013-05-14 07:25:00,
2013-05-14 03:27:00,56.1,52.3,30.12,NW,315,0.0,0.0,87,0.00,,---,0.00,VWS V14.01,2013-05-14 07:27:00,
2013-05-14 03:30:00,55.8,51.7,30.12,NW,315,0.0,0.0,86,0.00,,---,0.00,VWS V14.01,2013-05-14 07:30:00,
2013-05-14 03:32:00,55.8,51.7,30.12,NW,315,0.0,0.0,86,0.00,,---,0.00,VWS V14.01,2013-05-14 07:32:00,
2013-05-14 03:35:00,55.5,51.4,30.12,NW,315,0.0,0.0,86,0.00,,---,0.00,VWS V14.01,2013-05-14 07:35:00,
2013-05-14 03:37:00,55.5,51.1,30.12,NW,315,0.0,0.0,85,0.00,,---,0.00,VWS V14.01,2013-05-14 07:37:00,
2013-05-14 03:40:00,55.3,50.6,30.12,NW,315,0.0,0.0,84,0.00,,---,0.00,VWS V14.01,2013-05-14 07:40:00,
2013-05-14 03:42:00,55.3,50.6,30.12,NW,315,0.0,0.0,84,0.00,,---,0.00,VWS V14.01,2013-05-14 07:42:00,
2013-05-14 03:45:00,55.3,50.9,30.12,NW,315,0.0,0.0,85,0.00,,---,0.00,VWS V14.01,2013-05-14 07:45:00,
2013-05-14 03:47:00,55.3,50.9,30.12,NW,315,0.0,0.0,85,0.00,,---,0.00,VWS V14.01,2013-05-14 07:47:00,
2013-05-14 03:50:00,55.3,50.9,30.12,NW,315,0.0,0.0,85,0.00,,---,0.00,VWS V14.01,2013-05-14 07:50:00,
2013-05-14 03:52:00,55.3,50.9,30.12,NW,315,0.0,0.0,85,0.00,,---,0.00,VWS V14.01,2013-05-14 07:52:00,
2013-05-14 03:55:00,55.0,50.6,30.12,NW,315,0.0,0.0,85,0.00,,---,0.00,VWS V14.01,2013-05-14 07:55:00,
2013-05-14 03:57:00,55.0,50.6,30.12,NW,315,0.0,0.0,85,0.00,,---,0.00,VWS V14.01,2013-05-14 07:57:00,
2013-05-14 04:00:00,55.0,50.6,30.12,NW,315,0.0,0.0,85,0.00,,---,0.00,VWS V14.01,2013-05-14 08:00:00,
2013-05-14 04:02:00,55.0,50.6,30.12,NW,315,0.0,0.0,85,0.00,,---,0.00,VWS V14.01,2013-05-14 08:02:00,
2013-05-14 04:05:00,54.8,49.7,30.12,NW,315,0.0,0.0,83,0.00,,---,0.00,VWS V14.01,2013-05-14 08:05:00,
2013-05-14 04:07:00,54.8,49.7,30.12,NW,315,0.0,0.0,83,0.00,,---,0.00,VWS V14.01,2013-05-14 08:07:00,
2013-05-14 04:10:00,54.8,50.1,30.12,NW,315,0.0,0.0,84,0.00,,---,0.00,VWS V14.01,2013-05-14 08:10:00,
2013-05-14 04:12:00,54.8,50.1,30.12,NW,315,0.0,0.0,84,0.00,,---,0.00,VWS V14.01,2013-05-14 08:12:00,
2013-05-14 04:15:00,54.7,50.0,30.12,NW,315,0.0,0.0,84,0.00,,---,0.00,VWS V14.01,2013-05-14 08:15:00,
2013-05-14 04:17:00,54.7,50.0,30.12,NW,315,0.0,0.0,84,0.00,,---,0.00,VWS V14.01,2013-05-14 08:17:00,
2013-05-14 04:20:00,54.5,49.5,30.12,NW,315,0.0,0.0,83,0.00,,---,0.00,VWS V14.01,2013-05-14 08:20:00,
2013-05-14 04:22:00,54.4,49.3,30.12,NW,315,0.0,0.0,83,0.00,,---,0.00,VWS V14.01,2013-05-14 08:22:00,
2013-05-14 04:25:00,54.4,49.3,30.12,NW,315,0.0,0.0,83,0.00,,---,0.00,VWS V14.01,2013-05-14 08:25:00,
2013-05-14 04:27:00,54.4,49.3,30.12,NW,315,0.0,0.0,83,0.00,,---,0.00,VWS V14.01,2013-05-14 08:27:00,
2013-05-14 04:30:00,54.5,50.1,30.12,NW,315,0.0,0.0,85,0.00,,---,0.00,VWS V14.01,2013-05-14 08:30:00,
2013-05-14 04:32:00,54.5,50.1,30.12,NW,315,0.0,0.0,85,0.00,,---,0.00,VWS V14.01,2013-05-14 08:32:00,
2013-05-14 04:35:00,54.6,50.2,30.12,NW,315,0.0,0.0,85,0.00,,---,0.00,VWS V14.01,2013-05-14 08:35:00,
2013-05-14 04:37:00,54.6,50.2,30.12,NW,315,0.0,0.0,85,0.00,,---,0.00,VWS V14.01,2013-05-14 08:37:00,
2013-05-14 04:40:00,54.4,49.3,30.12,NW,315,0.0,0.0,83,0.00,,---,0.00,VWS V14.01,2013-05-14 08:40:00,
2013-05-14 04:42:00,54.4,49.0,30.12,NW,315,0.0,0.0,82,0.00,,---,0.00,VWS V14.01,2013-05-14 08:42:00,
2013-05-14 04:45:00,54.3,48.9,30.12,NW,315,0.0,0.0,82,0.00,,---,0.00,VWS V14.01,2013-05-14 08:45:00,
2013-05-14 04:47:00,54.3,48.9,30.12,NW,315,0.0,0.0,82,0.00,,---,0.00,VWS V14.01,2013-05-14 08:47:00,
2013-05-14 04:50:00,54.6,50.5,30.12,NW,315,0.0,0.0,86,0.00,,---,0.00,VWS V14.01,2013-05-14 08:50:00,
2013-05-14 04:52:00,54.6,50.5,30.12,NW,315,0.0,0.0,86,0.00,,---,0.00,VWS V14.01,2013-05-14 08:52:00,
2013-05-14 04:55:00,55.1,51.6,30.13,NW,315,0.0,0.0,88,0.00,,---,0.00,VWS V14.01,2013-05-14 08:55:00,
2013-05-14 04:57:00,55.1,51.6,30.13,NW,315,0.0,0.0,88,0.00,,---,0.00,VWS V14.01,2013-05-14 08:57:00,
2013-05-14 05:00:00,54.9,50.5,30.13,NW,315,0.0,0.0,85,0.00,,---,0.00,VWS V14.01,2013-05-14 09:00:00,
2013-05-14 05:02:00,54.9,50.5,30.13,NW,315,0.0,0.0,85,0.00,,---,0.00,VWS V14.01,2013-05-14 09:02:00,
2013-05-14 05:05:00,54.7,49.3,30.13,NW,315,0.0,0.0,82,0.00,,---,0.00,VWS V14.01,2013-05-14 09:05:00,
2013-05-14 05:07:00,54.7,49.3,30.13,NW,315,0.0,0.0,82,0.00,,---,0.00,VWS V14.01,2013-05-14 09:07:00,
2013-05-14 05:10:00,55.0,48.6,30.13,NW,315,0.0,0.0,79,0.00,,---,0.00,VWS V14.01,2013-05-14 09:10:00,
2013-05-14 05:12:00,55.0,48.6,30.13,NW,315,0.0,0.0,79,0.00,,---,0.00,VWS V14.01,2013-05-14 09:12:00,
2013-05-14 05:15:00,55.0,49.0,30.13,NW,315,0.0,0.0,80,0.00,,---,0.00,VWS V14.01,2013-05-14 09:15:00,
2013-05-14 05:17:00,55.0,49.0,30.13,NW,315,0.0,0.0,80,0.00,,---,0.00,VWS V14.01,2013-05-14 09:17:00,
2013-05-14 05:20:00,55.0,49.3,30.13,NW,315,0.0,0.0,81,0.00,,---,0.00,VWS V14.01,2013-05-14 09:20:00,
2013-05-14 05:22:00,54.9,49.2,30.13,NW,315,0.0,0.0,81,0.00,,---,0.00,VWS V14.01,2013-05-14 09:22:00,
2013-05-14 05:25:00,54.6,48.6,30.13,NW,315,0.0,0.0,80,0.00,,---,0.00,VWS V14.01,2013-05-14 09:25:00,
2013-05-14 05:27:00,54.6,48.6,30.13,NW,315,0.0,0.0,80,0.00,,---,0.00,VWS V14.01,2013-05-14 09:27:00,
2013-05-14 05:30:00,54.3,48.6,30.13,NW,315,0.0,0.0,81,0.00,,---,0.00,VWS V14.01,2013-05-14 09:30:00,
2013-05-14 05:32:00,54.3,48.6,30.13,NW,315,0.0,0.0,81,0.00,,---,0.00,VWS V14.01,2013-05-14 09:32:00,
2013-05-14 05:35:00,54.2,49.2,30.13,NW,315,0.0,0.0,83,0.00,,---,0.00,VWS V14.01,2013-05-14 09:35:00,
2013-05-14 05:37:00,54.2,49.2,30.13,NW,315,0.0,0.0,83,0.00,,---,0.00,VWS V14.01,2013-05-14 09:37:00,
2013-05-14 05:40:00,53.9,48.5,30.14,NW,315,0.0,0.0,82,0.00,,---,0.00,VWS V14.01,2013-05-14 09:40:00,
2013-05-14 05:42:00,53.9,48.5,30.14,NW,315,0.0,0.0,82,0.00,,---,0.00,VWS V14.01,2013-05-14 09:42:00,
2013-05-14 05:45:00,53.4,47.7,30.14,NW,315,0.0,0.0,81,0.00,,---,0.00,VWS V14.01,2013-05-14 09:45:00,
2013-05-14 05:47:00,53.4,47.7,30.14,NW,315,0.0,0.0,81,0.00,,---,0.00,VWS V14.01,2013-05-14 09:47:00,
2013-05-14 05:50:00,53.2,47.5,30.14,NW,315,0.0,0.0,81,0.00,,---,0.00,VWS V14.01,2013-05-14 09:50:00,
2013-05-14 05:52:00,53.2,47.5,30.14,NW,315,0.0,0.0,81,0.00,,---,0.00,VWS V14.01,2013-05-14 09:52:00,
2013-05-14 05:55:00,53.1,47.4,30.14,NW,315,0.0,0.0,81,0.00,,---,0.00,VWS V14.01,2013-05-14 09:55:00,
2013-05-14 05:57:00,53.1,47.8,30.14,NW,315,0.0,0.0,82,0.00,,---,0.00,VWS V14.01,2013-05-14 09:57:00,
2013-05-14 06:00:00,52.8,47.1,30.14,NW,315,0.0,0.0,81,0.00,,---,0.00,VWS V14.01,2013-05-14 10:00:00,
2013-05-14 06:02:00,52.8,47.1,30.14,NW,315,0.0,0.0,81,0.00,,---,0.00,VWS V14.01,2013-05-14 10:02:00,
2013-05-14 06:05:00,52.6,47.3,30.15,NW,315,0.0,0.0,82,0.00,,---,0.00,VWS V14.01,2013-05-14 10:05:00,
2013-05-14 06:07:00,52.6,47.3,30.15,NW,315,0.0,0.0,82,0.00,,---,0.00,VWS V14.01,2013-05-14 10:07:00,
2013-05-14 06:10:00,52.5,47.2,30.15,NW,315,0.0,1.0,82,0.00,,---,0.00,VWS V14.01,2013-05-14 10:10:00,
2013-05-14 06:12:00,52.5,47.2,30.15,NW,315,0.0,1.0,82,0.00,,---,0.00,VWS V14.01,2013-05-14 10:12:00,
2013-05-14 06:15:00,52.3,47.0,30.15,NW,315,0.0,0.0,82,0.00,,---,0.00,VWS V14.01,2013-05-14 10:15:00,
2013-05-14 06:17:00,52.3,47.0,30.15,NW,315,0.0,0.0,82,0.00,,---,0.00,VWS V14.01,2013-05-14 10:17:00,
2013-05-14 06:20:00,52.1,46.8,30.15,NW,315,0.0,0.0,82,0.00,,---,0.00,VWS V14.01,2013-05-14 10:20:00,
2013-05-14 06:22:00,52.1,46.8,30.16,NW,315,0.0,0.0,82,0.00,,---,0.00,VWS V14.01,2013-05-14 10:22:00,
2013-05-14 06:25:00,51.9,46.6,30.15,NW,315,0.0,0.0,82,0.00,,---,0.00,VWS V14.01,2013-05-14 10:25:00,
2013-05-14 06:27:00,51.9,46.6,30.16,NW,315,0.0,0.0,82,0.00,,---,0.00,VWS V14.01,2013-05-14 10:27:00,
2013-05-14 06:30:00,51.8,46.5,30.16,NW,315,0.0,0.0,82,0.00,,---,0.00,VWS V14.01,2013-05-14 10:30:00,
2013-05-14 06:32:00,51.8,46.5,30.16,NW,315,0.0,0.0,82,0.00,,---,0.00,VWS V14.01,2013-05-14 10:32:00,
2013-05-14 06:35:00,51.7,46.4,30.16,NW,315,0.0,0.0,82,0.00,,---,0.00,VWS V14.01,2013-05-14 10:35:00,
2013-05-14 06:37:00,51.7,46.4,30.16,NW,315,0.0,0.0,82,0.00,,---,0.00,VWS V14.01,2013-05-14 10:37:00,
2013-05-14 06:40:00,51.6,46.3,30.16,NW,315,0.0,4.0,82,0.00,,---,0.00,VWS V14.01,2013-05-14 10:40:00,
2013-05-14 06:42:00,51.6,46.3,30.16,NW,315,0.0,2.0,82,0.00,,---,0.00,VWS V14.01,2013-05-14 10:42:00,
2013-05-14 06:45:00,51.5,46.2,30.16,NW,315,0.0,0.0,82,0.00,,---,0.00,VWS V14.01,2013-05-14 10:45:00,
2013-05-14 06:47:00,51.5,46.2,30.16,NW,315,0.0,0.0,82,0.00,,---,0.00,VWS V14.01,2013-05-14 10:47:00,
2013-05-14 06:50:00,51.5,46.5,30.16,NW,315,0.0,0.0,83,0.00,,---,0.00,VWS V14.01,2013-05-14 10:50:00,
2013-05-14 06:52:00,51.5,46.5,30.17,NW,315,0.0,0.0,83,0.00,,---,0.00,VWS V14.01,2013-05-14 10:52:00,
2013-05-14 06:55:00,51.7,46.7,30.17,NW,315,0.0,0.0,83,0.00,,---,0.00,VWS V14.01,2013-05-14 10:55:00,
2013-05-14 06:57:00,51.7,46.7,30.17,NW,315,0.0,0.0,83,0.00,,---,0.00,VWS V14.01,2013-05-14 10:57:00,
2013-05-14 07:00:00,52.1,47.1,30.17,NW,315,0.0,2.0,83,0.00,,---,0.00,VWS V14.01,2013-05-14 11:00:00,
2013-05-14 07:02:00,52.1,47.1,30.17,NW,315,0.0,2.0,83,0.00,,---,0.00,VWS V14.01,2013-05-14 11:02:00,
2013-05-14 07:05:00,52.5,47.5,30.17,NW,315,0.0,0.0,83,0.00,,---,0.00,VWS V14.01,2013-05-14 11:05:00,
2013-05-14 07:07:00,52.5,47.5,30.17,NW,315,0.0,0.0,83,0.00,,---,0.00,VWS V14.01,2013-05-14 11:07:00,
2013-05-14 07:10:00,52.9,47.6,30.17,NNW,331,0.0,1.0,82,0.00,,---,0.00,VWS V14.01,2013-05-14 11:10:00,
2013-05-14 07:12:00,52.9,47.6,30.17,NNW,331,1.0,1.0,82,0.00,,---,0.00,VWS V14.01,2013-05-14 11:12:00,
2013-05-14 07:15:00,53.3,47.6,30.17,NNW,339,0.0,4.0,81,0.00,,---,0.00,VWS V14.01,2013-05-14 11:15:00,
2013-05-14 07:17:00,53.3,48.0,30.17,NNW,338,0.0,4.0,82,0.00,,---,0.00,VWS V14.01,2013-05-14 11:17:00,
2013-05-14 07:20:00,53.6,47.9,30.17,NNW,342,0.0,0.0,81,0.00,,---,0.00,VWS V14.01,2013-05-14 11:20:00,
2013-05-14 07:22:00,53.7,48.0,30.17,NNW,343,0.0,0.0,81,0.00,,---,0.00,VWS V14.01,2013-05-14 11:22:00,
2013-05-14 07:25:00,54.0,48.0,30.18,NNW,346,0.0,4.0,80,0.00,,---,0.00,VWS V14.01,2013-05-14 11:25:00,
2013-05-14 07:27:00,54.0,48.0,30.18,NNW,346,0.0,4.0,80,0.00,,---,0.00,VWS V14.01,2013-05-14 11:27:00,
2013-05-14 07:30:00,54.4,48.0,30.18,NE,38,5.0,6.0,79,0.00,,---,0.00,VWS V14.01,2013-05-14 11:30:00,
2013-05-14 07:32:00,54.5,48.1,30.18,NE,38,3.0,6.0,79,0.00,,---,0.00,VWS V14.01,2013-05-14 11:32:00,
2013-05-14 07:35:00,54.7,48.3,30.18,NE,54,4.0,6.0,79,0.00,,---,0.00,VWS V14.01,2013-05-14 11:35:00,
2013-05-14 07:37:00,54.8,48.4,30.18,NE,54,2.0,6.0,79,0.00,,---,0.00,VWS V14.01,2013-05-14 11:37:00,
2013-05-14 07:40:00,55.1,48.4,30.18,NE,53,4.0,6.0,78,0.00,,---,0.00,VWS V14.01,2013-05-14 11:40:00,
2013-05-14 07:42:00,55.1,48.4,30.18,NE,52,2.0,6.0,78,0.00,,---,0.00,VWS V14.01,2013-05-14 11:42:00,
2013-05-14 07:45:00,55.6,48.2,30.18,NE,51,0.0,6.0,76,0.00,,---,0.00,VWS V14.01,2013-05-14 11:45:00,
2013-05-14 07:47:00,55.7,48.3,30.18,NE,51,4.0,6.0,76,0.00,,---,0.00,VWS V14.01,2013-05-14 11:47:00,
2013-05-14 07:50:00,56.3,48.8,30.18,NE,51,3.0,4.0,76,0.00,,---,0.00,VWS V14.01,2013-05-14 11:50:00,
2013-05-14 07:52:00,56.4,48.9,30.18,NE,51,5.0,6.0,76,0.00,,---,0.00,VWS V14.01,2013-05-14 11:52:00,
2013-05-14 07:55:00,56.9,48.0,30.19,NE,51,0.0,6.0,72,0.00,,---,0.00,VWS V14.01,2013-05-14 11:55:00,
2013-05-14 07:57:00,56.9,48.0,30.19,NE,52,6.0,6.0,72,0.00,,---,0.00,VWS V14.01,2013-05-14 11:57:00,
2013-05-14 08:00:00,57.7,47.6,30.19,NE,55,6.0,6.0,69,0.00,,---,0.00,VWS V14.01,2013-05-14 12:00:00,
2013-05-14 08:02:00,57.7,47.6,30.19,NE,55,2.0,6.0,69,0.00,,---,0.00,VWS V14.01,2013-05-14 12:02:00,
2013-05-14 08:05:00,58.1,47.2,30.19,ENE,57,0.0,6.0,67,0.00,,---,0.00,VWS V14.01,2013-05-14 12:05:00,
2013-05-14 08:07:00,58.2,47.3,30.19,NE,56,2.0,6.0,67,0.00,,---,0.00,VWS V14.01,2013-05-14 12:07:00,
2013-05-14 08:10:00,58.5,47.2,30.20,NE,55,3.0,7.0,66,0.00,,---,0.00,VWS V14.01,2013-05-14 12:10:00,
2013-05-14 08:12:00,58.5,47.2,30.20,NE,55,5.0,6.0,66,0.00,,---,0.00,VWS V14.01,2013-05-14 12:12:00,
2013-05-14 08:15:00,58.7,47.0,30.20,ENE,57,4.0,7.0,65,0.00,,---,0.00,VWS V14.01,2013-05-14 12:15:00,
2013-05-14 08:17:00,58.7,47.0,30.20,ENE,57,5.0,7.0,65,0.00,,---,0.00,VWS V14.01,2013-05-14 12:17:00,
2013-05-14 08:20:00,58.9,47.2,30.20,NE,51,5.0,10.0,65,0.00,,---,0.00,VWS V14.01,2013-05-14 12:20:00,
2013-05-14 08:22:00,58.9,46.8,30.20,NE,51,4.0,10.0,64,0.00,,---,0.00,VWS V14.01,2013-05-14 12:22:00,
2013-05-14 08:25:00,59.2,47.0,30.20,ENE,74,6.0,9.0,64,0.00,,---,0.00,VWS V14.01,2013-05-14 12:25:00,
2013-05-14 08:27:00,59.2,47.0,30.20,ENE,74,4.0,9.0,64,0.00,,---,0.00,VWS V14.01,2013-05-14 12:27:00,
2013-05-14 08:30:00,59.3,48.0,30.21,ENE,71,4.0,5.0,66,0.00,,---,0.00,VWS V14.01,2013-05-14 12:30:00,
2013-05-14 08:32:00,59.3,48.0,30.21,ENE,71,3.0,5.0,66,0.00,,---,0.00,VWS V14.01,2013-05-14 12:32:00,
2013-05-14 08:35:00,59.9,48.1,30.21,ENE,65,4.0,7.0,65,0.00,,---,0.00,VWS V14.01,2013-05-14 12:35:00,
2013-05-14 08:37:00,59.9,48.1,30.21,ENE,64,6.0,7.0,65,0.00,,---,0.00,VWS V14.01,2013-05-14 12:37:00,
2013-05-14 08:40:00,60.2,48.4,30.21,ENE,59,3.0,9.0,65,0.00,,---,0.00,VWS V14.01,2013-05-14 12:40:00,
2013-05-14 08:42:00,60.2,48.0,30.21,ENE,59,5.0,9.0,64,0.00,,---,0.00,VWS V14.01,2013-05-14 12:42:00,
2013-05-14 08:45:00,60.7,48.5,30.21,ENE,66,6.0,7.0,64,0.00,,---,0.00,VWS V14.01,2013-05-14 12:45:00,
2013-05-14 08:47:00,60.8,48.6,30.21,ENE,65,6.0,7.0,64,0.00,,---,0.00,VWS V14.01,2013-05-14 12:47:00,
2013-05-14 08:50:00,61.1,48.8,30.21,ENE,69,7.0,10.0,64,0.00,,---,0.00,VWS V14.01,2013-05-14 12:50:00,
2013-05-14 08:52:00,61.1,48.0,30.21,ENE,71,3.0,10.0,62,0.00,,---,0.00,VWS V14.01,2013-05-14 12:52:00,
2013-05-14 08:55:00,61.4,48.7,30.22,ENE,63,2.0,9.0,63,0.00,,---,0.00,VWS V14.01,2013-05-14 12:55:00,
2013-05-14 08:57:00,61.4,49.5,30.22,ENE,63,0.0,9.0,65,0.00,,---,0.00,VWS V14.01,2013-05-14 12:57:00,
2013-05-14 09:00:00,62.0,49.3,30.22,ENE,65,6.0,6.0,63,0.00,,---,0.00,VWS V14.01,2013-05-14 13:00:00,
2013-05-14 09:02:00,62.1,49.4,30.22,ENE,61,9.0,10.0,63,0.00,,---,0.00,VWS V14.01,2013-05-14 13:02:00,
2013-05-14 09:05:00,62.3,48.7,30.22,ENE,72,2.0,7.0,61,0.00,,---,0.00,VWS V14.01,2013-05-14 13:05:00,
2013-05-14 09:07:00,62.3,48.7,30.22,ENE,72,0.0,7.0,61,0.00,,---,0.00,VWS V14.01,2013-05-14 13:07:00,
2013-05-14 09:10:00,62.7,49.5,30.22,ENE,68,4.0,6.0,62,0.00,,---,0.00,VWS V14.01,2013-05-14 13:10:00,
2013-05-14 09:12:00,62.8,49.6,30.22,ENE,70,2.0,6.0,62,0.00,,---,0.00,VWS V14.01,2013-05-14 13:12:00,
2013-05-14 09:15:00,63.5,50.7,30.22,ENE,75,2.0,4.0,63,0.00,,---,0.00,VWS V14.01,2013-05-14 13:15:00,
2013-05-14 09:17:00,63.5,51.1,30.22,ENE,76,1.0,4.0,64,0.00,,---,0.00,VWS V14.01,2013-05-14 13:17:00,
2013-05-14 09:20:00,64.1,50.4,30.22,ENE,67,3.0,9.0,61,0.00,,---,0.00,VWS V14.01,2013-05-14 13:20:00,
2013-05-14 09:22:00,64.1,50.8,30.22,ENE,65,9.0,10.0,62,0.00,,---,0.00,VWS V14.01,2013-05-14 13:22:00,
2013-05-14 09:25:00,64.3,50.1,30.22,East,80,0.0,9.0,60,0.00,,---,0.00,VWS V14.01,2013-05-14 13:25:00,
2013-05-14 09:27:00,64.3,50.1,30.22,ENE,78,4.0,9.0,60,0.00,,---,0.00,VWS V14.01,2013-05-14 13:27:00,
2013-05-14 09:30:00,64.7,50.1,30.22,ENE,71,3.0,8.0,59,0.00,,---,0.00,VWS V14.01,2013-05-14 13:30:00,
2013-05-14 09:32:00,64.8,50.6,30.22,ENE,72,6.0,8.0,60,0.00,,---,0.00,VWS V14.01,2013-05-14 13:32:00,
2013-05-14 09:35:00,65.0,49.9,30.22,East,88,4.0,7.0,58,0.00,,---,0.00,VWS V14.01,2013-05-14 13:35:00,
2013-05-14 09:37:00,65.0,49.9,30.22,East,89,6.0,7.0,58,0.00,,---,0.00,VWS V14.01,2013-05-14 13:37:00,
2013-05-14 09:40:00,65.9,50.3,30.22,East,88,4.0,6.0,57,0.00,,---,0.00,VWS V14.01,2013-05-14 13:40:00,
2013-05-14 09:42:00,65.9,50.2,30.22,East,88,4.0,6.0,57,0.00,,---,0.00,VWS V14.01,2013-05-14 13:42:00,
2013-05-14 09:45:00,66.3,50.6,30.22,East,80,3.0,7.0,57,0.00,,---,0.00,VWS V14.01,2013-05-14 13:45:00,
2013-05-14 09:48:00,66.4,50.7,30.22,East,82,4.0,7.0,57,0.00,,---,0.00,VWS V14.01,2013-05-14 13:48:00,
2013-05-14 09:50:00,66.3,50.2,30.22,East,84,5.0,10.0,56,0.00,,---,0.00,VWS V14.01,2013-05-14 13:50:00,
2013-05-14 09:53:00,66.3,50.2,30.22,East,87,6.0,10.0,56,0.00,,---,0.00,VWS V14.01,2013-05-14 13:53:00,
2013-05-14 09:55:00,66.3,50.6,30.22,ENE,76,9.0,10.0,57,0.00,,---,0.00,VWS V14.01,2013-05-14 13:55:00,
2013-05-14 09:58:00,66.3,50.6,30.22,East,88,6.0,10.0,57,0.00,,---,0.00,VWS V14.01,2013-05-14 13:58:00,
2013-05-14 10:00:00,66.5,50.8,30.22,East,91,9.0,12.0,57,0.00,,---,0.00,VWS V14.01,2013-05-14 14:00:00,
2013-05-14 10:02:00,66.5,50.3,30.22,East,80,11.0,11.0,56,0.00,,---,0.00,VWS V14.01,2013-05-14 14:02:00,
2013-05-14 10:05:00,66.9,52.1,30.22,ENE,74,1.0,6.0,59,0.00,,---,0.00,VWS V14.01,2013-05-14 14:05:00,
2013-05-14 10:08:00,67.1,52.3,30.22,ENE,75,4.0,6.0,59,0.00,,---,0.00,VWS V14.01,2013-05-14 14:08:00,
2013-05-14 10:10:00,67.3,51.1,30.22,ENE,67,9.0,11.0,56,0.00,,---,0.00,VWS V14.01,2013-05-14 14:10:00,
2013-05-14 10:13:00,67.3,51.1,30.22,ENE,77,9.0,11.0,56,0.00,,---,0.00,VWS V14.01,2013-05-14 14:13:00,
2013-05-14 10:15:00,67.5,50.8,30.22,East,84,0.0,8.0,55,0.00,,---,0.00,VWS V14.01,2013-05-14 14:15:00,
2013-05-14 10:18:00,67.6,50.9,30.22,East,83,3.0,8.0,55,0.00,,---,0.00,VWS V14.01,2013-05-14 14:18:00,
2013-05-14 10:20:00,67.7,50.5,30.23,East,84,7.0,13.0,54,0.00,,---,0.00,VWS V14.01,2013-05-14 14:20:00,
2013-05-14 10:23:00,67.7,50.5,30.22,ENE,69,10.0,12.0,54,0.00,,---,0.00,VWS V14.01,2013-05-14 14:23:00,
2013-05-14 10:25:00,67.7,49.5,30.23,East,87,9.0,11.0,52,0.00,,---,0.00,VWS V14.01,2013-05-14 14:25:00,
2013-05-14 10:28:00,67.7,50.5,30.23,ENE,70,6.0,11.0,54,0.00,,---,0.00,VWS V14.01,2013-05-14 14:28:00,
2013-05-14 10:30:00,68.0,50.8,30.23,East,89,6.0,10.0,54,0.00,,---,0.00,VWS V14.01,2013-05-14 14:30:00,
2013-05-14 10:33:00,68.1,51.3,30.23,ENE,62,11.0,11.0,55,0.00,,---,0.00,VWS V14.01,2013-05-14 14:33:00,
2013-05-14 10:35:00,68.1,50.8,30.23,ESE,108,6.0,9.0,54,0.00,,---,0.00,VWS V14.01,2013-05-14 14:35:00,
2013-05-14 10:38:00,68.1,50.3,30.23,ENE,74,5.0,9.0,53,0.00,,---,0.00,VWS V14.01,2013-05-14 14:38:00,
2013-05-14 10:40:00,68.1,49.8,30.23,East,90,0.0,10.0,52,0.00,,---,0.00,VWS V14.01,2013-05-14 14:40:00,
2013-05-14 10:43:00,68.0,50.8,30.23,East,88,0.0,10.0,54,0.00,,---,0.00,VWS V14.01,2013-05-14 14:43:00,
2013-05-14 10:45:00,68.0,49.7,30.23,East,82,0.0,10.0,52,0.00,,---,0.00,VWS V14.01,2013-05-14 14:45:00,
2013-05-14 10:48:00,68.0,49.7,30.23,East,84,6.0,10.0,52,0.00,,---,0.00,VWS V14.01,2013-05-14 14:48:00,
2013-05-14 10:50:00,68.0,49.7,30.23,East,100,3.0,10.0,52,0.00,,---,0.00,VWS V14.01,2013-05-14 14:50:00,
2013-05-14 10:53:00,68.1,49.8,30.23,East,101,0.0,8.0,52,0.00,,---,0.00,VWS V14.01,2013-05-14 14:53:00,
2013-05-14 10:55:00,68.5,50.2,30.23,ENE,61,7.0,11.0,52,0.00,,---,0.00,VWS V14.01,2013-05-14 14:55:00,
2013-05-14 10:58:00,68.5,50.2,30.24,ENE,61,6.0,11.0,52,0.00,,---,0.00,VWS V14.01,2013-05-14 14:58:00,
2013-05-14 11:00:00,68.5,49.7,30.24,East,90,5.0,12.0,51,0.00,,---,0.00,VWS V14.01,2013-05-14 15:00:00,
2013-05-14 11:03:00,68.5,50.7,30.24,East,101,2.0,11.0,53,0.00,,---,0.00,VWS V14.01,2013-05-14 15:03:00,
2013-05-14 11:05:00,68.8,50.0,30.24,ENE,62,4.0,9.0,51,0.00,,---,0.00,VWS V14.01,2013-05-14 15:05:00,
2013-05-14 11:08:00,68.8,50.0,30.24,ENE,63,3.0,9.0,51,0.00,,---,0.00,VWS V14.01,2013-05-14 15:08:00,
2013-05-14 11:10:00,68.5,50.2,30.24,East,84,7.0,10.0,52,0.00,,---,0.00,VWS V14.01,2013-05-14 15:10:00,
2013-05-14 11:13:00,68.4,50.1,30.24,East,86,0.0,10.0,52,0.00,,---,0.00,VWS V14.01,2013-05-14 15:13:00,
2013-05-14 11:15:00,68.7,50.4,30.24,ESE,114,1.0,9.0,52,0.00,,---,0.00,VWS V14.01,2013-05-14 15:15:00,
2013-05-14 11:18:00,68.8,50.5,30.24,ESE,113,6.0,9.0,52,0.00,,---,0.00,VWS V14.01,2013-05-14 15:18:00,
2013-05-14 11:20:00,68.9,50.0,30.24,ESE,103,5.0,12.0,51,0.00,,---,0.00,VWS V14.01,2013-05-14 15:20:00,
2013-05-14 11:23:00,68.9,50.0,30.24,ESE,103,5.0,12.0,51,0.00,,---,0.00,VWS V14.01,2013-05-14 15:23:00,
2013-05-14 11:25:00,69.0,51.2,30.24,ESE,123,10.0,10.0,53,0.00,,---,0.00,VWS V14.01,2013-05-14 15:25:00,
2013-05-14 11:28:00,69.0,51.2,30.24,ESE,123,0.0,10.0,53,0.00,,---,0.00,VWS V14.01,2013-05-14 15:28:00,
2013-05-14 11:30:00,68.5,50.2,30.24,ESE,115,12.0,12.0,52,0.00,,---,0.00,VWS V14.01,2013-05-14 15:30:00,
2013-05-14 11:33:00,68.4,49.6,30.24,ESE,102,11.0,12.0,51,0.00,,---,0.00,VWS V14.01,2013-05-14 15:33:00,
2013-05-14 11:35:00,68.5,51.2,30.24,SE,132,9.0,12.0,54,0.00,,---,0.00,VWS V14.01,2013-05-14 15:35:00,
2013-05-14 11:38:00,68.4,50.1,30.24,SE,136,7.0,12.0,52,0.00,,---,0.00,VWS V14.01,2013-05-14 15:38:00,
2013-05-14 11:40:00,68.4,51.1,30.24,East,94,10.0,10.0,54,0.00,,---,0.00,VWS V14.01,2013-05-14 15:40:00,
2013-05-14 11:43:00,68.4,50.1,30.24,ESE,103,5.0,11.0,52,0.00,,---,0.00,VWS V14.01,2013-05-14 15:43:00,
2013-05-14 11:45:00,68.3,50.0,30.24,SE,129,10.0,12.0,52,0.00,,---,0.00,VWS V14.01,2013-05-14 15:45:00,
2013-05-14 11:48:00,68.3,49.5,30.24,SE,134,1.0,13.0,51,0.00,,---,0.00,VWS V14.01,2013-05-14 15:48:00,
2013-05-14 11:50:00,68.4,50.6,30.24,East,97,7.0,11.0,53,0.00,,---,0.00,VWS V14.01,2013-05-14 15:50:00,
2013-05-14 11:53:00,68.4,51.1,30.24,East,90,7.0,11.0,54,0.00,,---,0.00,VWS V14.01,2013-05-14 15:53:00,
2013-05-14 11:55:00,68.2,50.4,30.24,East,98,0.0,14.0,53,0.00,,---,0.00,VWS V14.01,2013-05-14 15:55:00,
2013-05-14 11:58:00,68.2,50.4,30.24,ESE,117,5.0,14.0,53,0.00,,---,0.00,VWS V14.01,2013-05-14 15:58:00,
2013-05-14 12:00:00,68.4,50.6,30.24,East,84,1.0,10.0,53,0.00,,---,0.00,VWS V14.01,2013-05-14 16:00:00,
2013-05-14 12:03:00,68.4,50.6,30.24,ESE,121,3.0,7.0,53,0.00,,---,0.00,VWS V14.01,2013-05-14 16:03:00,
2013-05-14 12:05:00,68.4,50.6,30.24,East,81,7.0,10.0,53,0.00,,---,0.00,VWS V14.01,2013-05-14 16:05:00,
2013-05-14 12:08:00,68.3,50.5,30.24,East,83,4.0,10.0,53,0.00,,---,0.00,VWS V14.01,2013-05-14 16:08:00,
2013-05-14 12:10:00,68.5,51.2,30.24,ESE,103,9.0,12.0,54,0.00,,---,0.00,VWS V14.01,2013-05-14 16:10:00,
2013-05-14 12:13:00,68.5,50.7,30.24,ESE,102,3.0,11.0,53,0.00,,---,0.00,VWS V14.01,2013-05-14 16:13:00,
2013-05-14 12:15:00,68.6,49.8,30.24,East,96,3.0,10.0,51,0.00,,---,0.00,VWS V14.01,2013-05-14 16:15:00,
2013-05-14 12:18:00,68.5,50.2,30.24,ESE,121,10.0,12.0,52,0.00,,---,0.00,VWS V14.01,2013-05-14 16:18:00,
2013-05-14 12:20:00,68.6,50.3,30.24,SE,142,4.0,7.0,52,0.00,,---,0.00,VWS V14.01,2013-05-14 16:20:00,
2013-05-14 12:23:00,68.6,50.3,30.24,ESE,117,4.0,7.0,52,0.00,,---,0.00,VWS V14.01,2013-05-14 16:23:00,
2013-05-14 12:25:00,68.8,51.5,30.24,SE,142,3.0,7.0,54,0.00,,---,0.00,VWS V14.01,2013-05-14 16:25:00,
2013-05-14 12:28:00,68.8,49.4,30.24,SE,132,5.0,10.0,50,0.00,,---,0.00,VWS V14.01,2013-05-14 16:28:00,
2013-05-14 12:30:00,68.6,50.3,30.24,SE,129,9.0,12.0,52,0.00,,---,0.00,VWS V14.01,2013-05-14 16:30:00,
2013-05-14 12:33:00,68.5,49.7,30.24,ESE,123,7.0,12.0,51,0.00,,---,0.00,VWS V14.01,2013-05-14 16:33:00,
2013-05-14 12:35:00,68.6,49.8,30.24,SE,141,2.0,13.0,51,0.00,,---,0.00,VWS V14.01,2013-05-14 16:35:00,
2013-05-14 12:38:00,68.5,50.2,30.24,ESE,121,10.0,11.0,52,0.00,,---,0.00,VWS V14.01,2013-05-14 16:38:00,
2013-05-14 12:40:00,68.7,51.4,30.24,East,100,9.0,11.0,54,0.00,,---,0.00,VWS V14.01,2013-05-14 16:40:00,
2013-05-14 12:43:00,68.7,50.9,30.23,East,99,6.0,11.0,53,0.00,,---,0.00,VWS V14.01,2013-05-14 16:43:00,
2013-05-14 12:45:00,68.7,50.4,30.24,ESE,122,2.0,7.0,52,0.00,,---,0.00,VWS V14.01,2013-05-14 16:45:00,
2013-05-14 12:48:00,68.8,50.5,30.24,ESE,110,10.0,10.0,52,0.00,,---,0.00,VWS V14.01,2013-05-14 16:48:00,
2013-05-14 12:50:00,69.0,50.7,30.24,SE,129,5.0,11.0,52,0.00,,---,0.00,VWS V14.01,2013-05-14 16:50:00,
2013-05-14 12:53:00,69.0,50.7,30.24,SSE,164,1.0,11.0,52,0.00,,---,0.00,VWS V14.01,2013-05-14 16:53:00,
2013-05-14 12:55:00,68.8,50.5,30.23,ESE,121,9.0,9.0,52,0.00,,---,0.00,VWS V14.01,2013-05-14 16:55:00,
2013-05-14 12:58:00,69.0,51.2,30.23,ESE,105,9.0,9.0,53,0.00,,---,0.00,VWS V14.01,2013-05-14 16:58:00,
2013-05-14 13:00:00,69.0,51.7,30.23,East,94,12.0,12.0,54,0.00,,---,0.00,VWS V14.01,2013-05-14 17:00:00,
2013-05-14 13:03:00,69.0,50.1,30.24,East,98,3.0,12.0,51,0.00,,---,0.00,VWS V14.01,2013-05-14 17:03:00,
2013-05-14 13:05:00,68.8,50.5,30.23,ESE,113,11.0,11.0,52,0.00,,---,0.00,VWS V14.01,2013-05-14 17:05:00,
2013-05-14 13:08:00,68.7,50.4,30.23,SE,140,4.0,11.0,52,0.00,,---,0.00,VWS V14.01,2013-05-14 17:08:00,
2013-05-14 13:10:00,68.5,49.7,30.23,SE,130,3.0,9.0,51,0.00,,---,0.00,VWS V14.01,2013-05-14 17:10:00,
2013-05-14 13:13:00,68.6,50.8,30.23,South,180,3.0,10.0,53,0.00,,---,0.00,VWS V14.01,2013-05-14 17:13:00,
2013-05-14 13:15:00,68.7,51.4,30.23,SE,136,8.0,12.0,54,0.00,,---,0.00,VWS V14.01,2013-05-14 17:15:00,
2013-05-14 13:18:00,68.6,50.8,30.23,SSE,153,3.0,12.0,53,0.00,,---,0.00,VWS V14.01,2013-05-14 17:18:00,
2013-05-14 13:20:00,68.5,50.7,30.23,East,100,1.0,7.0,53,0.00,,---,0.00,VWS V14.01,2013-05-14 17:20:00,
2013-05-14 13:23:00,68.6,50.3,30.23,SE,134,3.0,10.0,52,0.00,,---,0.00,VWS V14.01,2013-05-14 17:23:00,
2013-05-14 13:25:00,68.5,51.2,30.23,SE,128,3.0,9.0,54,0.00,,---,0.00,VWS V14.01,2013-05-14 17:25:00,
2013-05-14 13:28:00,68.6,50.8,30.23,ESE,106,9.0,12.0,53,0.00,,---,0.00,VWS V14.01,2013-05-14 17:28:00,
2013-05-14 13:30:00,68.8,51.0,30.23,SE,144,2.0,11.0,53,0.00,,---,0.00,VWS V14.01,2013-05-14 17:30:00,
2013-05-14 13:33:00,68.9,51.6,30.23,ESE,102,6.0,6.0,54,0.00,,---,0.00,VWS V14.01,2013-05-14 17:33:00,
2013-05-14 13:35:00,69.0,53.2,30.23,East,92,4.0,11.0,57,0.00,,---,0.00,VWS V14.01,2013-05-14 17:35:00,
2013-05-14 13:38:00,69.0,52.2,30.22,East,92,3.0,7.0,55,0.00,,---,0.00,VWS V14.01,2013-05-14 17:38:00,
2013-05-14 13:40:00,69.4,51.5,30.22,East,90,4.0,7.0,53,0.00,,---,0.00,VWS V14.01,2013-05-14 17:40:00,
2013-05-14 13:43:00,69.1,51.3,30.22,SE,128,0.0,8.0,53,0.00,,---,0.00,VWS V14.01,2013-05-14 17:43:00,
2013-05-14 13:45:00,68.8,51.5,30.22,East,94,6.0,11.0,54,0.00,,---,0.00,VWS V14.01,2013-05-14 17:45:00,
2013-05-14 13:48:00,68.7,51.4,30.22,ESE,120,6.0,11.0,54,0.00,,---,0.00,VWS V14.01,2013-05-14 17:48:00,
2013-05-14 13:50:00,68.4,50.6,30.22,SE,128,0.0,11.0,53,0.00,,---,0.00,VWS V14.01,2013-05-14 17:50:00,
2013-05-14 13:53:00,68.3,51.5,30.22,SE,143,4.0,10.0,55,0.00,,---,0.00,VWS V14.01,2013-05-14 17:53:00,
2013-05-14 13:55:00,68.4,52.6,30.22,ESE,105,4.0,7.0,57,0.00,,---,0.00,VWS V14.01,2013-05-14 17:55:00,
2013-05-14 13:58:00,68.4,52.1,30.22,ESE,117,5.0,12.0,56,0.00,,---,0.00,VWS V14.01,2013-05-14 17:58:00,
2013-05-14 14:00:00,68.7,51.9,30.22,ESE,113,3.0,9.0,55,0.00,,---,0.00,VWS V14.01,2013-05-14 18:00:00,
2013-05-14 14:03:00,68.9,53.1,30.22,ESE,109,7.0,7.0,57,0.00,,---,0.00,VWS V14.01,2013-05-14 18:03:00,
2013-05-14 14:05:00,69.4,51.5,30.22,ESE,118,6.0,6.0,53,0.00,,---,0.00,VWS V14.01,2013-05-14 18:05:00,
2013-05-14 14:08:00,69.2,51.9,30.22,ESE,107,4.0,14.0,54,0.00,,---,0.00,VWS V14.01,2013-05-14 18:08:00,
2013-05-14 14:10:00,68.5,51.7,30.22,ESE,121,10.0,11.0,55,0.00,,---,0.00,VWS V14.01,2013-05-14 18:10:00,
2013-05-14 14:13:00,68.6,52.3,30.22,SE,136,3.0,10.0,56,0.00,,---,0.00,VWS V14.01,2013-05-14 18:13:00,
2013-05-14 14:15:00,68.7,52.4,30.21,SSE,167,2.0,4.0,56,0.00,,---,0.00,VWS V14.01,2013-05-14 18:15:00,
2013-05-14 14:18:00,68.8,52.0,30.22,SE,146,4.0,11.0,55,0.00,,---,0.00,VWS V14.01,2013-05-14 18:18:00,
2013-05-14 14:20:00,69.1,52.8,30.21,SE,138,3.0,7.0,56,0.00,,---,0.00,VWS V14.01,2013-05-14 18:20:00,
2013-05-14 14:23:00,69.3,53.0,30.22,SE,138,0.0,5.0,56,0.00,,---,0.00,VWS V14.01,2013-05-14 18:23:00,
2013-05-14 14:25:00,69.1,51.8,30.21,SE,129,3.0,10.0,54,0.00,,---,0.00,VWS V14.01,2013-05-14 18:25:00,
2013-05-14 14:28:00,69.2,52.4,30.21,SSE,148,4.0,7.0,55,0.00,,---,0.00,VWS V14.01,2013-05-14 18:28:00,
2013-05-14 14:30:00,69.0,52.2,30.21,ESE,123,7.0,12.0,55,0.00,,---,0.00,VWS V14.01,2013-05-14 18:30:00,
2013-05-14 14:33:00,68.9,52.1,30.21,SE,130,2.0,13.0,55,0.00,,---,0.00,VWS V14.01,2013-05-14 18:33:00,
2013-05-14 14:35:00,68.9,52.1,30.21,South,183,4.0,7.0,55,0.00,,---,0.00,VWS V14.01,2013-05-14 18:35:00,
2013-05-14 14:38:00,68.8,52.0,30.21,South,176,4.0,7.0,55,0.00,,---,0.00,VWS V14.01,2013-05-14 18:38:00,
2013-05-14 14:40:00,69.0,52.7,30.21,East,95,10.0,10.0,56,0.00,,---,0.00,VWS V14.01,2013-05-14 18:40:00,
2013-05-14 14:43:00,69.1,52.3,30.21,ESE,117,9.0,10.0,55,0.00,,---,0.00,VWS V14.01,2013-05-14 18:43:00,
2013-05-14 14:45:00,69.0,51.7,30.21,ESE,107,3.0,10.0,54,0.00,,---,0.00,VWS V14.01,2013-05-14 18:45:00,
2013-05-14 14:48:00,68.8,51.5,30.21,ESE,123,7.0,9.0,54,0.00,,---,0.00,VWS V14.01,2013-05-14 18:48:00,
2013-05-14 14:50:00,68.8,52.5,30.20,ESE,118,3.0,12.0,56,0.00,,---,0.00,VWS V14.01,2013-05-14 18:50:00,
2013-05-14 14:53:00,68.9,52.6,30.20,ESE,117,3.0,3.0,56,0.00,,---,0.00,VWS V14.01,2013-05-14 18:53:00,
2013-05-14 14:55:00,69.3,52.5,30.20,ESE,109,0.0,8.0,55,0.00,,---,0.00,VWS V14.01,2013-05-14 18:55:00,
2013-05-14 14:58:00,69.1,51.8,30.20,East,101,8.0,10.0,54,0.00,,---,0.00,VWS V14.01,2013-05-14 18:58:00,
2013-05-14 15:00:00,68.9,52.6,30.20,SE,141,0.0,14.0,56,0.00,,---,0.00,VWS V14.01,2013-05-14 19:00:00,
2013-05-14 15:03:00,68.8,52.0,30.20,SE,137,2.0,11.0,55,0.00,,---,0.00,VWS V14.01,2013-05-14 19:03:00,
2013-05-14 15:05:00,68.5,51.7,30.20,ESE,115,5.0,10.0,55,0.00,,---,0.00,VWS V14.01,2013-05-14 19:05:00,
2013-05-14 15:08:00,68.3,51.5,30.20,East,95,3.0,13.0,55,0.00,,---,0.00,VWS V14.01,2013-05-14 19:08:00,
2013-05-14 15:10:00,68.5,52.2,30.19,East,101,2.0,2.0,56,0.00,,---,0.00,VWS V14.01,2013-05-14 19:10:00,
2013-05-14 15:13:00,68.6,52.3,30.19,SE,134,3.0,10.0,56,0.00,,---,0.00,VWS V14.01,2013-05-14 19:13:00,
2013-05-14 15:15:00,68.7,52.4,30.19,ESE,107,0.0,11.0,56,0.00,,---,0.00,VWS V14.01,2013-05-14 19:15:00,
2013-05-14 15:18:00,68.6,52.3,30.19,SE,137,0.0,11.0,56,0.00,,---,0.00,VWS V14.01,2013-05-14 19:18:00,
2013-05-14 15:20:00,68.4,52.1,30.19,SE,125,0.0,9.0,56,0.00,,---,0.00,VWS V14.01,2013-05-14 19:20:00,
2013-05-14 15:24:00,68.6,52.3,30.19,SE,144,4.0,7.0,56,0.00,,---,0.00,VWS V14.01,2013-05-14 19:24:00,
2013-05-14 15:25:00,68.8,53.0,30.19,SE,138,4.0,6.0,57,0.00,,---,0.00,VWS V14.01,2013-05-14 19:25:00,
2013-05-14 15:29:00,68.8,52.5,30.19,ESE,119,4.0,11.0,56,0.00,,---,0.00,VWS V14.01,2013-05-14 19:29:00,
2013-05-14 15:30:00,68.6,53.7,30.18,ESE,110,11.0,11.0,59,0.00,,---,0.00,VWS V14.01,2013-05-14 19:30:00,
2013-05-14 15:34:00,68.6,52.8,30.18,SE,126,6.0,13.0,57,0.00,,---,0.00,VWS V14.01,2013-05-14 19:34:00,
2013-05-14 15:35:00,68.7,52.9,30.18,SE,140,9.0,10.0,57,0.00,,---,0.00,VWS V14.01,2013-05-14 19:35:00,
2013-05-14 15:40:00,68.6,52.3,30.18,SE,143,6.0,6.0,56,0.00,,---,0.00,VWS V14.01,2013-05-14 19:40:00,
2013-05-14 15:45:00,69.1,54.2,30.18,SE,140,7.0,7.0,59,0.00,,---,0.00,VWS V14.01,2013-05-14 19:45:00,
2013-05-14 15:50:00,69.5,53.1,30.18,SE,128,0.0,5.0,56,0.00,,---,0.00,VWS V14.01,2013-05-14 19:50:00,
2013-05-14 15:55:00,69.5,52.6,30.18,ESE,120,3.0,11.0,55,0.00,,---,0.00,VWS V14.01,2013-05-14 19:55:00,
2013-05-14 16:00:00,69.2,53.3,30.18,ESE,117,0.0,4.0,57,0.00,,---,0.00,VWS V14.01,2013-05-14 20:00:00,
2013-05-14 16:05:00,69.7,53.3,30.18,ESE,118,0.0,6.0,56,0.00,,---,0.00,VWS V14.01,2013-05-14 20:05:00,
2013-05-14 16:10:00,69.7,53.3,30.18,SE,145,5.0,6.0,56,0.00,,---,0.00,VWS V14.01,2013-05-14 20:10:00,
2013-05-14 16:15:00,69.8,54.4,30.17,SE,142,0.0,0.0,58,0.00,,---,0.00,VWS V14.01,2013-05-14 20:15:00,
2013-05-14 16:20:00,69.4,53.0,30.17,ESE,119,2.0,14.0,56,0.00,,---,0.00,VWS V14.01,2013-05-14 20:20:00,
2013-05-14 16:25:00,69.6,54.2,30.17,SE,133,1.0,4.0,58,0.00,,---,0.00,VWS V14.01,2013-05-14 20:25:00,
2013-05-14 16:30:00,69.7,53.8,30.17,ESE,123,0.0,2.0,57,0.00,,---,0.00,VWS V14.01,2013-05-14 20:30:00,
2013-05-14 16:35:00,69.8,52.9,30.17,SE,134,4.0,7.0,55,0.00,,---,0.00,VWS V14.01,2013-05-14 20:35:00,
2013-05-14 16:40:00,69.3,53.9,30.17,South,169,5.0,5.0,58,0.00,,---,0.00,VWS V14.01,2013-05-14 20:40:00,
2013-05-14 16:45:00,69.4,54.0,30.17,SSW,192,4.0,7.0,58,0.00,,---,0.00,VWS V14.01,2013-05-14 20:45:00,
2013-05-14 16:50:00,69.0,53.2,30.17,ESE,115,6.0,9.0,57,0.00,,---,0.00,VWS V14.01,2013-05-14 20:50:00,
2013-05-14 16:55:00,69.6,54.7,30.17,ESE,121,0.0,0.0,59,0.00,,---,0.00,VWS V14.01,2013-05-14 20:55:00,
2013-05-14 17:00:00,69.9,54.0,30.17,SSE,149,0.0,0.0,57,0.00,,---,0.00,VWS V14.01,2013-05-14 21:00:00,
2013-05-14 17:05:00,69.8,54.4,30.17,SE,124,0.0,6.0,58,0.00,,---,0.00,VWS V14.01,2013-05-14 21:05:00,
2013-05-14 17:10:00,69.8,53.9,30.17,SE,143,0.0,0.0,57,0.00,,---,0.00,VWS V14.01,2013-05-14 21:10:00,
2013-05-14 17:15:00,69.9,53.5,30.17,SE,125,0.0,0.0,56,0.00,,---,0.00,VWS V14.01,2013-05-14 21:15:00,
2013-05-14 17:20:00,70.3,53.4,30.17,ESE,121,0.0,0.0,55,0.00,,---,0.00,VWS V14.01,2013-05-14 21:20:00,
2013-05-14 17:25:00,70.5,54.5,30.17,SE,134,3.0,5.0,57,0.00,,---,0.00,VWS V14.01,2013-05-14 21:25:00,
2013-05-14 17:30:00,70.0,54.1,30.17,ESE,118,0.0,3.0,57,0.00,,---,0.00,VWS V14.01,2013-05-14 21:30:00,
2013-05-14 17:35:00,70.2,54.3,30.17,SSE,167,0.0,0.0,57,0.00,,---,0.00,VWS V14.01,2013-05-14 21:35:00,
2013-05-14 17:40:00,70.3,54.4,30.17,SSE,167,0.0,0.0,57,0.00,,---,0.00,VWS V14.01,2013-05-14 21:40:00,
2013-05-14 17:45:00,70.5,54.1,30.17,SW,236,0.0,10.0,56,0.00,,---,0.00,VWS V14.01,2013-05-14 21:45:00,
2013-05-14 17:50:00,70.7,55.2,30.17,SSW,193,1.0,6.0,58,0.00,,---,0.00,VWS V14.01,2013-05-14 21:50:00,
2013-05-14 17:55:00,70.5,54.5,30.17,SSW,195,3.0,5.0,57,0.00,,---,0.00,VWS V14.01,2013-05-14 21:55:00,
2013-05-14 18:00:00,70.5,55.0,30.17,South,191,3.0,3.0,58,0.00,,---,0.00,VWS V14.01,2013-05-14 22:00:00,
2013-05-14 18:05:00,70.3,53.9,30.17,SW,230,4.0,4.0,56,0.00,,---,0.00,VWS V14.01,2013-05-14 22:05:00,
2013-05-14 18:10:00,70.2,53.8,30.16,SSW,210,0.0,7.0,56,0.00,,---,0.00,VWS V14.01,2013-05-14 22:10:00,
2013-05-14 18:15:00,70.2,53.8,30.16,SSW,194,0.0,0.0,56,0.00,,---,0.00,VWS V14.01,2013-05-14 22:15:00,
2013-05-14 18:20:00,70.1,54.2,30.16,SW,225,0.0,0.0,57,0.00,,---,0.00,VWS V14.01,2013-05-14 22:20:00,
2013-05-14 18:25:00,70.0,53.6,30.16,SW,231,0.0,6.0,56,0.00,,---,0.00,VWS V14.01,2013-05-14 22:25:00,
2013-05-14 18:30:00,70.0,53.6,30.16,SW,224,0.0,0.0,56,0.00,,---,0.00,VWS V14.01,2013-05-14 22:30:00,
2013-05-14 18:35:00,70.1,53.7,30.16,South,176,0.0,7.0,56,0.00,,---,0.00,VWS V14.01,2013-05-14 22:35:00,
2013-05-14 18:40:00,70.2,54.3,30.16,South,175,0.0,0.0,57,0.00,,---,0.00,VWS V14.01,2013-05-14 22:40:00,
2013-05-14 18:45:00,70.3,54.4,30.16,South,175,0.0,0.0,57,0.00,,---,0.00,VWS V14.01,2013-05-14 22:45:00,
2013-05-14 18:50:00,70.5,53.6,30.17,SSW,193,1.0,7.0,55,0.00,,---,0.00,VWS V14.01,2013-05-14 22:50:00,
2013-05-14 18:55:00,70.1,54.7,30.17,SSW,195,0.0,0.0,58,0.00,,---,0.00,VWS V14.01,2013-05-14 22:55:00,
2013-05-14 19:00:00,69.9,54.5,30.16,SSW,209,2.0,6.0,58,0.00,,---,0.00,VWS V14.01,2013-05-14 23:00:00,
2013-05-14 19:05:00,69.7,54.3,30.16,SSW,205,0.0,0.0,58,0.00,,---,0.00,VWS V14.01,2013-05-14 23:05:00,
2013-05-14 19:10:00,69.5,54.6,30.16,SSW,194,4.0,6.0,59,0.00,,---,0.00,VWS V14.01,2013-05-14 23:10:00,
2013-05-14 19:15:00,69.4,54.5,30.16,SW,217,0.0,4.0,59,0.00,,---,0.00,VWS V14.01,2013-05-14 23:15:00,
2013-05-14 19:20:00,69.3,54.4,30.16,SW,216,0.0,3.0,59,0.00,,---,0.00,VWS V14.01,2013-05-14 23:20:00,
2013-05-14 19:25:00,69.4,54.0,30.16,SW,215,0.0,2.0,58,0.00,,---,0.00,VWS V14.01,2013-05-14 23:25:00,
2013-05-14 19:30:00,69.3,53.9,30.16,SW,217,0.0,2.0,58,0.00,,---,0.00,VWS V14.01,2013-05-14 23:30:00,
2013-05-14 19:35:00,69.2,54.7,30.16,SW,217,0.0,0.0,60,0.00,,---,0.00,VWS V14.01,2013-05-14 23:35:00,
2013-05-14 19:40:00,69.2,54.7,30.16,SW,217,0.0,0.0,60,0.00,,---,0.00,VWS V14.01,2013-05-14 23:40:00,
2013-05-14 19:45:00,69.0,54.1,30.16,SW,217,0.0,0.0,59,0.00,,---,0.00,VWS V14.01,2013-05-14 23:45:00,
2013-05-14 19:50:00,68.6,54.2,30.16,SW,217,0.0,3.0,60,0.00,,---,0.00,VWS V14.01,2013-05-14 23:50:00,
2013-05-14 19:55:00,68.3,53.9,30.17,SW,217,0.0,0.0,60,0.00,,---,0.00,VWS V14.01,2013-05-14 23:55:00,
2013-05-14 20:00:00,67.9,54.0,30.16,SW,217,0.0,0.0,61,0.00,,---,0.00,VWS V14.01,2013-05-15 00:00:00,
2013-05-14 20:05:00,67.6,54.1,30.16,SW,217,0.0,0.0,62,0.00,,---,0.00,VWS V14.01,2013-05-15 00:05:00,
2013-05-14 20:10:00,67.3,54.3,30.16,SW,217,0.0,0.0,63,0.00,,---,0.00,VWS V14.01,2013-05-15 00:10:00,
2013-05-14 20:15:00,67.0,54.0,30.16,SW,217,0.0,0.0,63,0.00,,---,0.00,VWS V14.01,2013-05-15 00:15:00,
2013-05-14 20:20:00,66.6,54.1,30.16,SW,217,0.0,0.0,64,0.00,,---,0.00,VWS V14.01,2013-05-15 00:20:00,
2013-05-14 20:25:00,66.3,53.8,30.16,SW,217,0.0,0.0,64,0.00,,---,0.00,VWS V14.01,2013-05-15 00:25:00,
2013-05-14 20:32:00,65.8,53.7,30.16,SW,217,0.0,0.0,65,0.00,,---,0.00,VWS V14.01,2013-05-15 00:32:00,
2013-05-14 20:37:00,65.6,54.0,30.16,SW,217,0.0,0.0,66,0.00,,---,0.00,VWS V14.01,2013-05-15 00:37:00,
2013-05-14 20:42:00,65.3,54.1,30.16,SW,217,0.0,0.0,67,0.00,,---,0.00,VWS V14.01,2013-05-15 00:42:00,
2013-05-14 20:48:00,65.1,55.1,30.16,SW,217,0.0,0.0,70,0.00,,---,0.00,VWS V14.01,2013-05-15 00:48:00,
2013-05-14 20:53:00,64.8,54.8,30.16,SW,217,0.0,0.0,70,0.00,,---,0.00,VWS V14.01,2013-05-15 00:53:00,
2013-05-14 20:58:00,64.5,54.5,30.17,SW,217,0.0,0.0,70,0.00,,---,0.00,VWS V14.01,2013-05-15 00:58:00,
2013-05-14 21:03:00,64.3,54.7,30.17,SW,217,0.0,0.0,71,0.00,,---,0.00,VWS V14.01,2013-05-15 01:03:00,
2013-05-14 21:08:00,63.9,53.9,30.17,SW,217,0.0,0.0,70,0.00,,---,0.00,VWS V14.01,2013-05-15 01:08:00,
2013-05-14 21:13:00,63.7,53.7,30.17,SW,217,0.0,0.0,70,0.00,,---,0.00,VWS V14.01,2013-05-15 01:13:00,
2013-05-14 21:18:00,63.6,54.0,30.17,SW,217,0.0,0.0,71,0.00,,---,0.00,VWS V14.01,2013-05-15 01:18:00,
2013-05-14 21:23:00,63.6,54.0,30.17,SW,217,0.0,0.0,71,0.00,,---,0.00,VWS V14.01,2013-05-15 01:23:00,
2013-05-14 21:28:00,63.6,54.0,30.17,SW,217,0.0,0.0,71,0.00,,---,0.00,VWS V14.01,2013-05-15 01:28:00,
2013-05-14 21:33:00,63.6,54.0,30.17,SW,217,0.0,0.0,71,0.00,,---,0.00,VWS V14.01,2013-05-15 01:33:00,
2013-05-14 21:38:00,63.6,54.0,30.17,SW,217,0.0,0.0,71,0.00,,---,0.00,VWS V14.01,2013-05-15 01:38:00,
2013-05-14 21:43:00,63.6,54.8,30.17,SW,217,0.0,0.0,73,0.00,,---,0.00,VWS V14.01,2013-05-15 01:43:00,
2013-05-14 21:48:00,63.8,54.6,30.17,SW,217,0.0,0.0,72,0.00,,---,0.00,VWS V14.01,2013-05-15 01:48:00,
2013-05-14 21:53:00,64.0,54.4,30.17,SW,217,0.0,0.0,71,0.00,,---,0.00,VWS V14.01,2013-05-15 01:53:00,
2013-05-14 21:58:00,63.9,54.3,30.17,SW,217,0.0,0.0,71,0.00,,---,0.00,VWS V14.01,2013-05-15 01:58:00,
2013-05-14 22:03:00,64.0,54.0,30.17,SW,217,0.0,0.0,70,0.00,,---,0.00,VWS V14.01,2013-05-15 02:03:00,
2013-05-14 22:08:00,64.0,54.8,30.17,SW,217,0.0,0.0,72,0.00,,---,0.00,VWS V14.01,2013-05-15 02:08:00,
2013-05-14 22:13:00,63.8,54.6,30.17,SW,217,0.0,0.0,72,0.00,,---,0.00,VWS V14.01,2013-05-15 02:13:00,
2013-05-14 22:18:00,63.6,54.0,30.17,SW,217,0.0,0.0,71,0.00,,---,0.00,VWS V14.01,2013-05-15 02:18:00,
2013-05-14 22:23:00,63.6,54.4,30.17,SW,217,0.0,0.0,72,0.00,,---,0.00,VWS V14.01,2013-05-15 02:23:00,
2013-05-14 22:28:00,63.6,54.0,30.17,SW,217,0.0,0.0,71,0.00,,---,0.00,VWS V14.01,2013-05-15 02:28:00,
2013-05-14 22:33:00,63.8,54.2,30.17,SW,217,0.0,0.0,71,0.00,,---,0.00,VWS V14.01,2013-05-15 02:33:00,
2013-05-14 22:38:00,64.0,54.4,30.17,SW,217,0.0,0.0,71,0.00,,---,0.00,VWS V14.01,2013-05-15 02:38:00,
2013-05-14 22:43:00,64.0,54.4,30.17,SW,217,0.0,0.0,71,0.00,,---,0.00,VWS V14.01,2013-05-15 02:43:00,
2013-05-14 22:48:00,64.2,54.2,30.16,SW,217,0.0,0.0,70,0.00,,---,0.00,VWS V14.01,2013-05-15 02:48:00,
2013-05-14 22:53:00,64.3,54.3,30.16,SW,217,0.0,0.0,70,0.00,,---,0.00,VWS V14.01,2013-05-15 02:53:00,
2013-05-14 22:58:00,64.6,53.8,30.16,SW,217,0.0,0.0,68,0.00,,---,0.00,VWS V14.01,2013-05-15 02:58:00,
2013-05-14 23:03:00,64.8,54.0,30.16,SW,217,0.0,0.0,68,0.00,,---,0.00,VWS V14.01,2013-05-15 03:03:00,
2013-05-14 23:08:00,64.8,54.0,30.16,SW,217,0.0,0.0,68,0.00,,---,0.00,VWS V14.01,2013-05-15 03:08:00,
2013-05-14 23:13:00,64.9,53.7,30.16,SW,217,0.0,1.0,67,0.00,,---,0.00,VWS V14.01,2013-05-15 03:13:00,
2013-05-14 23:18:00,65.4,53.3,30.16,SW,220,0.0,7.0,65,0.00,,---,0.00,VWS V14.01,2013-05-15 03:18:00,
2013-05-14 23:23:00,65.7,54.0,30.16,SW,220,0.0,3.0,66,0.00,,---,0.00,VWS V14.01,2013-05-15 03:23:00,
2013-05-14 23:28:00,65.8,53.3,30.16,SW,220,0.0,0.0,64,0.00,,---,0.00,VWS V14.01,2013-05-15 03:28:00,
2013-05-14 23:33:00,66.0,53.9,30.16,SW,220,0.0,0.0,65,0.00,,---,0.00,VWS V14.01,2013-05-15 03:33:00,
2013-05-14 23:38:00,66.1,53.2,30.16,SW,219,0.0,1.0,63,0.00,,---,0.00,VWS V14.01,2013-05-15 03:38:00,
2013-05-14 23:43:00,66.3,53.8,30.16,SW,220,0.0,0.0,64,0.00,,---,0.00,VWS V14.01,2013-05-15 03:43:00,
2013-05-14 23:48:00,66.5,54.0,30.16,SW,219,1.0,2.0,64,0.00,,---,0.00,VWS V14.01,2013-05-15 03:48:00,
2013-05-14 23:53:00,66.6,53.2,30.16,SW,221,0.0,4.0,62,0.00,,---,0.00,VWS V14.01,2013-05-15 03:53:00,
2013-05-14 23:58:00,66.7,53.7,30.15,SW,221,0.0,0.0,63,0.00,,---,0.00,VWS V14.01,2013-05-15 03:58:00,